Location: Falniów
(50.3639°N, 19.9642°E)
Time: 12:00:57
(UTC+00:00)

Meteor 1-22 Rocket - Pass Details

Date: 18 January 2026
Orbit: 787 x 938 km, 81.2° (Epoch: 15 February)

Event Time Altitude Azimuth Distance (km) Brightness Sun altitude
Rises 05:08:17 0° 193° (SSW) 3,581 7.5 -12.9°
Reaches altitude 10° 05:10:47 10° 195° (SSW) 2,634 6.8 -12.6°
Maximum altitude 05:16:50 81° 282° (WNW) 935 4.3 -11.6°
Drops below altitude 10° 05:22:46 10° 11° (N) 2,579 6.6 -10.7°
Sets 05:25:12 0° 12° (NNE) 3,502 7.3 -10.4°
